Time,TemperatureF,DewpointF,PressureIn,WindDirection,WindDirectionDegrees,WindSpeedMPH,WindSpeedGustMPH,Humidity,HourlyPrecipIn,Conditions,Clouds,dailyrainin,SoftwareType,DateUTC
2013-02-23 00:00:00,28.4,21.8,30.26,SSE,158,0.0,0.0,76,0.00,OVC,,0.00,WeatherDisplay:10.37,2013-02-23 05:00:00,
2013-02-23 00:06:00,28.4,21.8,30.26,SSE,158,0.0,0.0,76,0.00,BKN,,0.00,WeatherDisplay:10.37,2013-02-23 05:06:00,
2013-02-23 00:11:00,28.4,21.8,30.26,SSE,158,0.0,0.0,76,0.00,BKN,,0.00,WeatherDisplay:10.37,2013-02-23 05:11:00,
2013-02-23 00:12:00,28.9,22.3,30.26,East,90,0.0,0.0,76,0.00,BKN,,0.00,WeatherDisplay:10.37,2013-02-23 05:12:00,
2013-02-23 00:17:00,28.9,22.6,30.26,East,90,0.1,1.1,77,0.00,BKN,,0.00,WeatherDisplay:10.37,2013-02-23 05:17:00,
2013-02-23 00:22:00,28.8,22.5,30.26,East,90,0.1,0.0,77,0.00,BKN,,0.00,WeatherDisplay:10.37,2013-02-23 05:22:00,
2013-02-23 00:27:00,28.9,22.6,30.26,SW,225,0.1,0.0,77,0.00,BKN,,0.00,WeatherDisplay:10.37,2013-02-23 05:27:00,
2013-02-23 00:32:00,29.1,22.8,30.26,SW,225,0.1,0.0,77,0.00,BKN,,0.00,WeatherDisplay:10.37,2013-02-23 05:32:00,
2013-02-23 00:37:00,29.3,23.0,30.26,SW,225,0.0,0.0,77,0.00,BKN,,0.00,WeatherDisplay:10.37,2013-02-23 05:37:00,
2013-02-23 00:42:00,29.3,23.3,30.24,SW,225,0.0,0.0,78,0.00,BKN,,0.00,WeatherDisplay:10.37,2013-02-23 05:42:00,
2013-02-23 00:47:00,29.3,23.0,30.24,SW,225,0.0,0.0,77,0.00,BKN,,0.00,WeatherDisplay:10.37,2013-02-23 05:47:00,
2013-02-23 00:52:00,29.7,23.6,30.24,SW,225,0.0,0.0,78,0.00,BKN,,0.00,WeatherDisplay:10.37,2013-02-23 05:52:00,
2013-02-23 00:57:00,29.5,23.5,30.24,SW,225,0.0,0.0,78,0.00,BKN,,0.00,WeatherDisplay:10.37,2013-02-23 05:57:00,
2013-02-23 01:01:00,29.7,23.6,30.25,SW,225,0.0,0.0,78,0.00,BKN,,0.00,WeatherDisplay:10.37,2013-02-23 06:01:00,
2013-02-23 01:06:00,29.7,23.6,30.25,SW,225,0.0,0.0,78,0.00,OVC,,0.00,WeatherDisplay:10.37,2013-02-23 06:06:00,
2013-02-23 01:11:00,29.7,23.6,30.25,South,180,0.0,0.0,78,0.00,OVC,,0.00,WeatherDisplay:10.37,2013-02-23 06:11:00,
2013-02-23 01:16:00,29.7,23.6,30.25,South,180,0.0,0.0,78,0.00,OVC,,0.00,WeatherDisplay:10.37,2013-02-23 06:16:00,
2013-02-23 01:22:00,29.7,23.6,30.24,SSW,202,0.0,0.0,78,0.00,OVC,,0.00,WeatherDisplay:10.37,2013-02-23 06:22:00,
2013-02-23 01:27:00,29.7,23.6,30.24,SSW,202,0.0,0.0,78,0.00,OVC,,0.00,WeatherDisplay:10.37,2013-02-23 06:27:00,
2013-02-23 01:32:00,30.0,24.0,30.24,East,90,0.1,0.0,78,0.00,OVC,,0.00,WeatherDisplay:10.37,2013-02-23 06:32:00,
2013-02-23 01:37:00,29.8,23.8,30.24,South,180,0.3,2.3,78,0.00,OVC,,0.00,WeatherDisplay:10.37,2013-02-23 06:37:00,
2013-02-23 01:42:00,29.8,23.8,30.23,SSW,202,0.2,0.0,78,0.00,OVC,,0.00,WeatherDisplay:10.37,2013-02-23 06:42:00,
2013-02-23 01:47:00,30.0,24.0,30.23,SSW,202,0.1,0.0,78,0.00,OVC,,0.00,WeatherDisplay:10.37,2013-02-23 06:47:00,
2013-02-23 01:52:00,30.0,24.0,30.23,SSE,158,0.3,1.1,78,0.00,OVC,,0.00,WeatherDisplay:10.37,2013-02-23 06:52:00,
2013-02-23 01:58:00,30.0,23.7,30.24,SSE,158,0.3,0.0,77,0.00,OVC,,0.00,WeatherDisplay:10.37,2013-02-23 06:58:00,
2013-02-23 02:03:00,30.0,23.7,30.24,SSE,158,0.1,0.0,77,0.00,OVC,,0.00,WeatherDisplay:10.37,2013-02-23 07:03:00,
2013-02-23 02:08:00,30.0,23.7,30.24,SW,225,0.1,0.0,77,0.00,OVC,,0.00,WeatherDisplay:10.37,2013-02-23 07:08:00,
2013-02-23 02:13:00,30.4,24.0,30.24,SSW,202,0.0,0.0,77,0.00,OVC,,0.00,WeatherDisplay:10.37,2013-02-23 07:13:00,
2013-02-23 02:18:00,30.4,24.0,30.23,SSE,158,0.0,0.0,77,0.00,OVC,,0.00,WeatherDisplay:10.37,2013-02-23 07:18:00,
2013-02-23 02:23:00,30.0,23.7,30.23,South,180,0.1,1.1,77,0.00,OVC,,0.00,WeatherDisplay:10.37,2013-02-23 07:23:00,
2013-02-23 02:28:00,30.4,24.0,30.23,SSE,158,0.1,0.0,77,0.00,OVC,,0.00,WeatherDisplay:10.37,2013-02-23 07:28:00,
2013-02-23 02:33:00,30.4,24.0,30.23,SSW,202,0.1,0.0,77,0.00,OVC,,0.00,WeatherDisplay:10.37,2013-02-23 07:33:00,
2013-02-23 02:38:00,30.2,23.9,30.23,SSW,202,0.0,0.0,77,0.00,OVC,,0.00,WeatherDisplay:10.37,2013-02-23 07:38:00,
2013-02-23 02:43:00,30.4,24.0,30.23,SSW,202,0.0,0.0,77,0.00,OVC,,0.00,WeatherDisplay:10.37,2013-02-23 07:43:00,
2013-02-23 02:48:00,30.2,23.9,30.23,South,180,0.1,0.0,77,0.00,OVC,,0.00,WeatherDisplay:10.37,2013-02-23 07:48:00,
2013-02-23 02:53:00,30.4,24.0,30.23,South,180,0.2,1.1,77,0.00,OVC,,0.00,WeatherDisplay:10.37,2013-02-23 07:53:00,
2013-02-23 02:58:00,30.4,24.0,30.22,SSE,158,0.3,1.1,77,0.00,OVC,,0.00,WeatherDisplay:10.37,2013-02-23 07:58:00,
2013-02-23 03:03:00,30.4,24.0,30.22,East,90,0.2,0.0,77,0.00,OVC,,0.00,WeatherDisplay:10.37,2013-02-23 08:03:00,
2013-02-23 03:08:00,30.4,24.0,30.22,East,90,0.2,0.0,77,0.00,OVC,,0.00,WeatherDisplay:10.37,2013-02-23 08:08:00,
2013-02-23 03:13:00,30.4,24.0,30.22,ENE,68,0.0,0.0,77,0.00,OVC,,0.00,WeatherDisplay:10.37,2013-02-23 08:13:00,
2013-02-23 03:19:00,30.4,24.0,30.22,East,90,0.0,0.0,77,0.00,OVC,,0.00,WeatherDisplay:10.37,2013-02-23 08:19:00,
2013-02-23 03:24:00,30.4,24.0,30.22,East,90,0.0,0.0,77,0.00,OVC,,0.00,WeatherDisplay:10.37,2013-02-23 08:24:00,
2013-02-23 03:29:00,30.4,24.0,30.22,SE,135,0.1,0.0,77,0.00,OVC,,0.00,WeatherDisplay:10.37,2013-02-23 08:29:00,
2013-02-23 03:34:00,30.4,24.3,30.22,East,90,0.1,0.0,78,0.00,OVC,,0.00,WeatherDisplay:10.37,2013-02-23 08:34:00,
2013-02-23 03:39:00,30.4,24.0,30.20,South,180,0.0,0.0,77,0.00,OVC,,0.00,WeatherDisplay:10.37,2013-02-23 08:39:00,
2013-02-23 03:44:00,30.4,24.0,30.20,NE,45,0.0,0.0,77,0.00,OVC,,0.00,WeatherDisplay:10.37,2013-02-23 08:44:00,
2013-02-23 03:49:00,30.4,24.3,30.20,ENE,68,0.1,1.1,78,0.00,OVC,,0.00,WeatherDisplay:10.37,2013-02-23 08:49:00,
2013-02-23 03:54:00,30.4,24.3,30.20,SW,225,0.2,1.1,78,0.00,OVC,,0.00,WeatherDisplay:10.37,2013-02-23 08:54:00,
2013-02-23 03:59:00,30.4,24.0,30.19,SSE,158,0.2,0.0,77,0.00,OVC,,0.00,WeatherDisplay:10.37,2013-02-23 08:59:00,
2013-02-23 04:04:00,30.4,24.3,30.19,ESE,112,0.1,0.0,78,0.00,OVC,,0.00,WeatherDisplay:10.37,2013-02-23 09:04:00,
2013-02-23 04:09:00,30.4,24.0,30.19,ESE,112,0.2,0.0,77,0.00,OVC,,0.00,WeatherDisplay:10.37,2013-02-23 09:09:00,
2013-02-23 04:14:00,30.7,24.7,30.19,SSW,202,0.3,0.0,78,0.00,OVC,,0.00,WeatherDisplay:10.37,2013-02-23 09:14:00,
2013-02-23 04:19:00,30.4,24.0,30.19,South,180,0.3,0.0,77,0.00,OVC,,0.00,WeatherDisplay:10.37,2013-02-23 09:19:00,
2013-02-23 04:24:00,30.4,24.3,30.19,SSE,158,0.1,0.0,78,0.00,OVC,,0.00,WeatherDisplay:10.37,2013-02-23 09:24:00,
2013-02-23 04:29:00,30.4,24.3,30.19,SSE,158,0.1,1.1,78,0.00,OVC,,0.00,WeatherDisplay:10.37,2013-02-23 09:29:00,
2013-02-23 04:34:00,30.7,24.7,30.19,NE,45,0.1,0.0,78,0.00,OVC,,0.00,WeatherDisplay:10.37,2013-02-23 09:34:00,
2013-02-23 04:39:00,30.6,24.5,30.19,NNW,338,0.1,0.0,78,0.00,OVC,,0.00,WeatherDisplay:10.37,2013-02-23 09:39:00,
2013-02-23 04:44:00,30.4,24.3,30.19,NE,45,0.5,1.1,78,0.00,OVC,,0.00,WeatherDisplay:10.37,2013-02-23 09:44:00,
2013-02-23 04:49:00,30.4,24.3,30.19,SE,135,0.6,2.3,78,0.00,OVC,,0.00,WeatherDisplay:10.37,2013-02-23 09:49:00,
2013-02-23 04:54:00,30.4,24.0,30.19,NE,45,0.2,0.0,77,0.00,OVC,,0.00,WeatherDisplay:10.37,2013-02-23 09:54:00,
2013-02-23 04:59:00,30.7,24.4,30.20,NNW,338,0.3,1.1,77,0.00,OVC,,0.00,WeatherDisplay:10.37,2013-02-23 09:59:00,
2013-02-23 05:04:00,30.7,24.7,30.20,SSE,158,0.3,0.0,78,0.00,OVC,,0.00,WeatherDisplay:10.37,2013-02-23 10:04:00,
2013-02-23 05:09:00,30.4,24.3,30.20,SSW,202,0.7,2.3,78,0.00,OVC,,0.00,WeatherDisplay:10.37,2013-02-23 10:09:00,
2013-02-23 05:14:00,30.4,24.3,30.20,SW,225,0.5,1.1,78,0.00,OVC,,0.00,WeatherDisplay:10.37,2013-02-23 10:14:00,
2013-02-23 05:19:00,30.7,24.7,30.19,WSW,248,0.9,2.3,78,0.00,OVC,,0.00,WeatherDisplay:10.37,2013-02-23 10:19:00,
2013-02-23 05:24:00,30.4,24.3,30.19,SE,135,1.0,4.6,78,0.00,OVC,,0.00,WeatherDisplay:10.37,2013-02-23 10:24:00,
2013-02-23 05:29:00,30.4,24.3,30.19,SSE,158,0.7,1.1,78,0.00,OVC,,0.00,WeatherDisplay:10.37,2013-02-23 10:29:00,
2013-02-23 05:34:00,30.7,24.7,30.19,SSE,158,0.5,0.0,78,0.00,OVC,,0.00,WeatherDisplay:10.37,2013-02-23 10:34:00,
2013-02-23 05:39:00,30.6,24.5,30.19,South,180,0.6,2.3,78,0.00,OVC,,0.00,WeatherDisplay:10.37,2013-02-23 10:39:00,
2013-02-23 05:44:00,30.7,24.7,30.19,NNE,22,0.6,2.3,78,0.00,OVC,,0.00,WeatherDisplay:10.37,2013-02-23 10:44:00,
2013-02-23 05:49:00,30.7,24.7,30.19,East,90,0.3,1.1,78,0.00,OVC,,0.00,WeatherDisplay:10.37,2013-02-23 10:49:00,
2013-02-23 05:54:00,30.7,24.7,30.19,South,180,0.3,0.0,78,0.00,OVC,,0.00,WeatherDisplay:10.37,2013-02-23 10:54:00,
2013-02-23 05:59:00,30.6,24.5,30.19,East,90,0.5,1.1,78,0.00,OVC,,0.00,WeatherDisplay:10.37,2013-02-23 10:59:00,
2013-02-23 06:04:00,30.6,24.5,30.19,East,90,0.3,1.1,78,0.00,OVC,,0.00,WeatherDisplay:10.37,2013-02-23 11:04:00,
2013-02-23 06:09:00,30.6,24.5,30.19,East,90,0.3,1.1,78,0.00,OVC,,0.00,WeatherDisplay:10.37,2013-02-23 11:09:00,
2013-02-23 06:14:00,30.7,24.7,30.19,SSW,202,0.7,0.0,78,0.00,OVC,,0.00,WeatherDisplay:10.37,2013-02-23 11:14:00,
2013-02-23 06:19:00,30.4,24.3,30.18,SSW,202,0.3,0.0,78,0.00,OVC,,0.00,WeatherDisplay:10.37,2013-02-23 11:19:00,
2013-02-23 06:24:00,30.6,24.5,30.18,East,90,0.3,2.5,78,0.00,OVC,,0.00,WeatherDisplay:10.37,2013-02-23 11:24:00,
2013-02-23 06:29:00,30.6,24.5,30.18,SSE,158,0.5,2.3,78,0.00,OVC,,0.00,WeatherDisplay:10.37,2013-02-23 11:29:00,
2013-02-23 06:34:00,30.7,24.7,30.18,South,180,0.5,0.0,78,0.00,OVC,,0.00,WeatherDisplay:10.37,2013-02-23 11:34:00,
2013-02-23 06:39:00,30.6,24.5,30.17,SSE,158,0.3,0.0,78,0.00,OVC,,0.00,WeatherDisplay:10.37,2013-02-23 11:39:00,
2013-02-23 06:44:00,30.6,24.5,30.17,WNW,292,0.2,2.3,78,0.00,OVC,,0.00,WeatherDisplay:10.37,2013-02-23 11:44:00,
2013-02-23 06:49:00,30.6,24.5,30.17,ESE,112,0.3,2.3,78,0.00,OVC,,0.00,WeatherDisplay:10.37,2013-02-23 11:49:00,
2013-02-23 06:54:00,30.7,24.7,30.17,WSW,248,0.3,0.0,78,0.00,OVC,,0.00,WeatherDisplay:10.37,2013-02-23 11:54:00,
2013-02-23 06:59:00,30.7,24.7,30.18,SSW,202,0.3,1.1,78,0.00,OVC,,0.00,WeatherDisplay:10.37,2013-02-23 11:59:00,
2013-02-23 07:04:00,30.7,24.7,30.18,South,180,0.3,0.0,78,0.00,OVC,,0.00,WeatherDisplay:10.37,2013-02-23 12:04:00,
2013-02-23 07:09:00,31.1,25.0,30.18,NNW,338,0.2,0.0,78,0.00,OVC,,0.00,WeatherDisplay:10.37,2013-02-23 12:09:00,
2013-02-23 07:14:00,30.9,24.9,30.18,South,180,0.3,0.0,78,0.00,OVC,,0.00,WeatherDisplay:10.37,2013-02-23 12:14:00,
2013-02-23 07:19:00,30.9,24.9,30.17,SE,135,0.1,0.0,78,0.00,OVC,,0.00,WeatherDisplay:10.37,2013-02-23 12:19:00,
2013-02-23 07:24:00,31.1,25.0,30.17,SSW,202,0.1,1.1,78,0.00,OVC,,0.00,WeatherDisplay:10.37,2013-02-23 12:24:00,
2013-02-23 07:29:00,31.1,25.0,30.17,South,180,0.1,0.0,78,0.00,OVC,,0.00,WeatherDisplay:10.37,2013-02-23 12:29:00,
2013-02-23 07:34:00,31.1,25.3,30.17,SSW,202,0.2,0.0,79,0.00,OVC,,0.00,WeatherDisplay:10.37,2013-02-23 12:34:00,
2013-02-23 07:39:00,31.1,25.3,30.18,SW,225,0.7,1.1,79,0.00,OVC,,0.00,WeatherDisplay:10.37,2013-02-23 12:39:00,
2013-02-23 07:44:00,31.3,25.5,30.18,East,90,0.9,2.3,79,0.00,OVC,,0.00,WeatherDisplay:10.37,2013-02-23 12:44:00,
2013-02-23 07:49:00,31.5,25.7,30.18,SE,135,0.8,1.1,79,0.00,OVC,,0.00,WeatherDisplay:10.37,2013-02-23 12:49:00,
2013-02-23 07:54:00,31.5,25.7,30.18,ENE,68,0.9,2.3,79,0.00,OVC,,0.00,WeatherDisplay:10.37,2013-02-23 12:54:00,
2013-02-23 07:59:00,31.5,25.7,30.17,SW,225,0.8,1.1,79,0.00,OVC,,0.00,WeatherDisplay:10.37,2013-02-23 12:59:00,
2013-02-23 08:04:00,31.8,26.0,30.17,SE,135,0.5,0.0,79,0.00,OVC,,0.00,WeatherDisplay:10.37,2013-02-23 13:04:00,
2013-02-23 08:09:00,31.8,25.7,30.17,ENE,68,0.6,2.4,78,0.00,OVC,,0.00,WeatherDisplay:10.37,2013-02-23 13:09:00,
2013-02-23 08:14:00,31.8,25.7,30.17,SSE,158,0.6,1.1,78,0.00,OVC,,0.00,WeatherDisplay:10.37,2013-02-23 13:14:00,
2013-02-23 08:19:00,31.8,25.7,30.17,SSE,158,0.9,2.3,78,0.00,OVC,,0.00,WeatherDisplay:10.37,2013-02-23 13:19:00,
2013-02-23 08:24:00,32.0,25.9,30.17,East,90,0.8,0.0,78,0.00,OVC,,0.00,WeatherDisplay:10.37,2013-02-23 13:24:00,
2013-02-23 08:29:00,32.0,25.9,30.17,NE,45,1.0,2.3,78,0.00,OVC,,0.00,WeatherDisplay:10.37,2013-02-23 13:29:00,
2013-02-23 08:34:00,32.5,26.4,30.17,ENE,68,1.1,2.3,78,0.00,OVC,,0.00,WeatherDisplay:10.37,2013-02-23 13:34:00,
2013-02-23 08:39:00,32.4,26.3,30.17,ENE,68,0.7,2.3,78,0.00,OVC,,0.00,WeatherDisplay:10.37,2013-02-23 13:39:00,
2013-02-23 08:44:00,32.5,26.4,30.17,East,90,0.5,0.0,78,0.00,OVC,,0.00,WeatherDisplay:10.37,2013-02-23 13:44:00,
2013-02-23 08:49:00,32.5,26.4,30.17,South,180,1.0,4.6,78,0.00,OVC,,0.00,WeatherDisplay:10.37,2013-02-23 13:49:00,
2013-02-23 08:55:00,32.5,26.4,30.17,South,180,1.0,1.1,78,0.00,OVC,,0.00,WeatherDisplay:10.37,2013-02-23 13:55:00,
2013-02-23 09:00:00,32.7,26.6,30.16,WSW,248,1.0,2.3,78,0.00,OVC,,0.00,WeatherDisplay:10.37,2013-02-23 14:00:00,
2013-02-23 09:05:00,32.7,26.6,30.16,SSE,158,1.1,1.1,78,0.00,OVC,,0.00,WeatherDisplay:10.37,2013-02-23 14:05:00,
2013-02-23 09:10:00,33.1,27.0,30.16,SW,225,0.9,1.1,78,0.00,OVC,,0.00,WeatherDisplay:10.37,2013-02-23 14:10:00,
2013-02-23 09:15:00,33.3,27.1,30.16,SSW,202,0.5,1.1,78,0.00,OVC,,0.00,WeatherDisplay:10.37,2013-02-23 14:15:00,
2013-02-23 09:20:00,33.6,27.5,30.19,East,90,0.2,1.1,78,0.00,OVC,,0.00,WeatherDisplay:10.37,2013-02-23 14:20:00,
2013-02-23 09:25:00,33.6,27.5,30.19,SSW,202,0.5,1.1,78,0.00,OVC,,0.00,WeatherDisplay:10.37,2013-02-23 14:25:00,
2013-02-23 09:30:00,33.8,27.7,30.19,NE,45,0.9,0.0,78,0.00,OVC,,0.00,WeatherDisplay:10.37,2013-02-23 14:30:00,
2013-02-23 09:35:00,34.0,27.5,30.19,South,180,0.9,2.3,77,0.00,OVC,,0.00,WeatherDisplay:10.37,2013-02-23 14:35:00,
2013-02-23 09:40:00,33.8,27.4,30.19,NE,45,1.5,4.6,77,0.00,OVC,,0.00,WeatherDisplay:10.37,2013-02-23 14:40:00,
2013-02-23 09:45:00,34.0,27.5,30.19,North,0,1.7,3.5,77,0.00,OVC,,0.00,WeatherDisplay:10.37,2013-02-23 14:45:00,
2013-02-23 09:50:00,34.0,27.5,30.19,South,180,1.6,2.3,77,0.00,OVC,,0.00,WeatherDisplay:10.37,2013-02-23 14:50:00,
2013-02-23 09:55:00,34.2,27.7,30.19,NE,45,1.5,3.5,77,0.00,OVC,,0.00,WeatherDisplay:10.37,2013-02-23 14:55:00,
2013-02-23 10:00:00,34.2,27.7,30.18,NNW,338,1.1,1.1,77,0.00,OVC,,0.00,WeatherDisplay:10.37,2013-02-23 15:00:00,
2013-02-23 10:05:00,34.3,27.9,30.18,SSE,158,1.6,4.6,77,0.00,OVC,,0.00,WeatherDisplay:10.37,2013-02-23 15:05:00,
2013-02-23 10:10:00,34.3,27.9,30.18,SW,225,2.2,3.5,77,0.00,OVC,,0.00,WeatherDisplay:10.37,2013-02-23 15:10:00,
2013-02-23 10:15:00,34.5,28.1,30.18,SE,135,2.0,2.3,77,0.00,OVC,,0.00,WeatherDisplay:10.37,2013-02-23 15:15:00,
2013-02-23 10:20:00,34.7,28.2,30.20,SW,225,1.8,1.8,77,0.00,OVC,,0.00,WeatherDisplay:10.37,2013-02-23 15:20:00,
2013-02-23 10:25:00,35.1,28.6,30.20,South,180,1.4,2.3,77,0.00,OVC,,0.00,WeatherDisplay:10.37,2013-02-23 15:25:00,
2013-02-23 10:30:00,35.1,28.6,30.20,SE,135,1.4,5.8,77,0.00,OVC,,0.00,WeatherDisplay:10.37,2013-02-23 15:30:00,
2013-02-23 10:35:00,35.1,28.3,30.20,NNE,22,1.5,2.3,76,0.00,OVC,,0.00,WeatherDisplay:10.37,2013-02-23 15:35:00,
2013-02-23 10:40:00,35.2,28.4,30.19,South,180,1.6,2.3,76,0.00,OVC,,0.00,WeatherDisplay:10.37,2013-02-23 15:40:00,
2013-02-23 10:45:00,35.4,28.6,30.19,WSW,248,1.6,2.3,76,0.00,OVC,,0.00,WeatherDisplay:10.37,2013-02-23 15:45:00,
2013-02-23 10:50:00,35.2,28.4,30.19,NE,45,2.1,3.5,76,0.00,OVC,,0.00,WeatherDisplay:10.37,2013-02-23 15:50:00,
2013-02-23 10:55:00,35.2,28.4,30.19,SW,225,2.1,4.6,76,0.00,OVC,,0.00,WeatherDisplay:10.37,2013-02-23 15:55:00,
2013-02-23 11:00:00,35.6,28.8,30.19,SSE,158,2.4,2.4,76,0.00,OVC,,0.00,WeatherDisplay:10.37,2013-02-23 16:00:00,
2013-02-23 11:05:00,35.6,28.8,30.19,NE,45,2.0,4.6,76,0.00,OVC,,0.00,WeatherDisplay:10.37,2013-02-23 16:05:00,
2013-02-23 11:10:00,35.8,29.0,30.19,SE,135,1.5,1.5,76,0.00,OVC,,0.00,WeatherDisplay:10.37,2013-02-23 16:10:00,
2013-02-23 11:15:00,35.6,28.5,30.19,ESE,112,2.0,4.6,75,0.00,OVC,,0.00,WeatherDisplay:10.37,2013-02-23 16:15:00,
2013-02-23 11:20:00,35.6,28.5,30.18,ENE,68,2.3,2.3,75,0.00,OVC,,0.00,WeatherDisplay:10.37,2013-02-23 16:20:00,
2013-02-23 11:25:00,35.6,28.5,30.18,South,180,2.3,2.3,75,0.00,OVC,,0.00,WeatherDisplay:10.37,2013-02-23 16:25:00,
2013-02-23 11:30:00,35.6,28.8,30.18,SW,225,1.7,2.3,76,0.00,OVC,,0.00,WeatherDisplay:10.37,2013-02-23 16:30:00,
2013-02-23 11:35:00,35.6,28.8,30.18,SW,225,1.6,3.5,76,0.00,OVC,,0.00,WeatherDisplay:10.37,2013-02-23 16:35:00,
2013-02-23 11:40:00,35.6,28.8,30.17,NE,45,2.0,4.6,76,0.00,OVC,,0.00,WeatherDisplay:10.37,2013-02-23 16:40:00,
2013-02-23 11:45:00,35.8,29.0,30.17,ENE,68,2.4,3.5,76,0.00,OVC,,0.00,WeatherDisplay:10.37,2013-02-23 16:45:00,
2013-02-23 11:50:00,35.6,28.8,30.17,SE,135,2.4,2.4,76,0.00,OVC,,0.00,WeatherDisplay:10.37,2013-02-23 16:50:00,
2013-02-23 11:55:00,35.8,29.0,30.17,SE,135,2.0,2.3,76,0.00,OVC,,0.00,WeatherDisplay:10.37,2013-02-23 16:55:00,
2013-02-23 12:00:00,35.6,28.8,30.16,South,180,1.7,2.3,76,0.00,OVC,,0.00,WeatherDisplay:10.37,2013-02-23 17:00:00,
2013-02-23 12:05:00,35.6,28.8,30.16,East,90,1.8,2.3,76,0.00,OVC,,0.00,WeatherDisplay:10.37,2013-02-23 17:05:00,
2013-02-23 12:10:00,35.6,28.8,30.16,East,90,1.8,2.3,76,0.00,OVC,,0.00,WeatherDisplay:10.37,2013-02-23 17:10:00,
2013-02-23 12:15:00,36.0,29.1,30.16,East,90,1.8,2.3,76,0.00,OVC,,0.00,WeatherDisplay:10.37,2013-02-23 17:15:00,
2013-02-23 12:20:00,36.1,29.3,30.15,ESE,112,2.4,2.4,76,0.00,OVC,,0.00,WeatherDisplay:10.37,2013-02-23 17:20:00,
2013-02-23 12:25:00,36.1,29.3,30.15,SW,225,2.4,2.4,76,0.00,OVC,,0.00,WeatherDisplay:10.37,2013-02-23 17:25:00,
2013-02-23 12:30:00,36.1,29.3,30.15,SW,225,2.0,3.5,76,0.00,OVC,,0.00,WeatherDisplay:10.37,2013-02-23 17:30:00,
2013-02-23 12:35:00,36.0,29.1,30.15,SSE,158,1.6,1.6,76,0.00,OVC,,0.00,WeatherDisplay:10.37,2013-02-23 17:35:00,
2013-02-23 12:40:00,36.1,29.3,30.14,ESE,112,1.7,4.6,76,0.00,OVC,,0.00,WeatherDisplay:10.37,2013-02-23 17:40:00,
2013-02-23 12:45:00,36.1,29.3,30.14,ESE,112,2.2,4.6,76,0.00,OVC,,0.00,WeatherDisplay:10.37,2013-02-23 17:45:00,
2013-02-23 12:50:00,36.1,29.3,30.14,South,180,2.2,2.2,76,0.00,OVC,,0.00,WeatherDisplay:10.37,2013-02-23 17:50:00,
2013-02-23 12:55:00,36.3,29.5,30.14,SSE,158,1.7,2.3,76,0.00,OVC,,0.00,WeatherDisplay:10.37,2013-02-23 17:55:00,
2013-02-23 13:00:00,36.3,29.5,30.13,South,180,1.4,1.4,76,0.00,OVC,,0.00,WeatherDisplay:10.37,2013-02-23 18:00:00,
2013-02-23 13:05:00,36.3,29.5,30.13,SSW,202,2.0,3.5,76,0.00,OVC,,0.00,WeatherDisplay:10.37,2013-02-23 18:05:00,
2013-02-23 13:10:00,35.8,29.3,30.13,SSE,158,2.0,4.6,77,0.00,OVC,,0.00,WeatherDisplay:10.37,2013-02-23 18:10:00,
2013-02-23 13:15:00,35.8,29.6,30.13,South,180,2.3,3.5,78,0.00,OVC,,0.00,WeatherDisplay:10.37,2013-02-23 18:15:00,
2013-02-23 13:20:00,35.4,29.2,30.08,SSW,202,2.4,2.4,78,0.00,OVC,,0.00,WeatherDisplay:10.37,2013-02-23 18:20:00,
2013-02-23 13:25:00,35.4,29.2,30.08,SE,135,2.0,2.6,78,0.00,OVC,,0.00,WeatherDisplay:10.37,2013-02-23 18:25:00,
2013-02-23 13:30:00,35.2,29.1,30.08,WSW,248,1.6,0.0,78,0.00,OVC,,0.00,WeatherDisplay:10.37,2013-02-23 18:30:00,
2013-02-23 13:35:00,35.4,29.2,30.08,SW,225,1.5,2.3,78,0.00,OVC,,0.00,WeatherDisplay:10.37,2013-02-23 18:35:00,
2013-02-23 13:40:00,34.9,29.0,30.08,SSE,158,1.5,1.5,79,0.00,OVC,,0.00,WeatherDisplay:10.37,2013-02-23 18:40:00,
2013-02-23 13:45:00,35.1,29.2,30.08,East,90,1.7,3.5,79,0.00,OVC,,0.00,WeatherDisplay:10.37,2013-02-23 18:45:00,
2013-02-23 13:50:00,35.1,29.2,30.08,South,180,2.1,3.5,79,0.00,OVC,,0.00,WeatherDisplay:10.37,2013-02-23 18:50:00,
2013-02-23 13:55:00,34.9,29.3,30.08,SW,225,2.0,2.3,80,0.00,OVC,,0.00,WeatherDisplay:10.37,2013-02-23 18:55:00,
2013-02-23 14:00:00,34.7,29.2,30.07,WSW,248,1.5,2.3,80,0.00,OVC,,0.00,WeatherDisplay:10.37,2013-02-23 19:00:00,
2013-02-23 14:05:00,34.9,29.3,30.07,NE,45,1.1,1.6,80,0.00,OVC,,0.00,WeatherDisplay:10.37,2013-02-23 19:05:00,
2013-02-23 14:10:00,34.9,29.3,30.07,NE,45,1.5,4.6,80,0.00,OVC,,0.00,WeatherDisplay:10.37,2013-02-23 19:10:00,
2013-02-23 14:15:00,34.9,29.3,30.07,ESE,112,1.3,2.3,80,0.00,OVC,,0.00,WeatherDisplay:10.37,2013-02-23 19:15:00,
2013-02-23 14:20:00,34.9,29.3,30.08,SE,135,1.0,4.6,80,0.00,OVC,,0.00,WeatherDisplay:10.37,2013-02-23 19:20:00,
2013-02-23 14:25:00,34.9,29.3,30.08,South,180,1.3,3.5,80,0.00,OVC,,0.00,WeatherDisplay:10.37,2013-02-23 19:25:00,
2013-02-23 14:30:00,35.1,29.5,30.08,ENE,68,1.7,3.5,80,0.00,OVC,,0.00,WeatherDisplay:10.37,2013-02-23 19:30:00,
2013-02-23 14:35:00,34.9,29.3,30.08,South,180,2.1,8.1,80,0.00,OVC,,0.00,WeatherDisplay:10.37,2013-02-23 19:35:00,
2013-02-23 14:40:00,34.9,29.0,30.06,SE,135,2.1,2.3,79,0.00,OVC,,0.00,WeatherDisplay:10.37,2013-02-23 19:40:00,
2013-02-23 14:45:00,35.1,29.2,30.06,NE,45,2.1,5.8,79,0.00,OVC,,0.00,WeatherDisplay:10.37,2013-02-23 19:45:00,
2013-02-23 14:50:00,35.2,29.4,30.06,SSE,158,1.6,3.5,79,0.00,OVC,,0.00,WeatherDisplay:10.37,2013-02-23 19:50:00,
2013-02-23 14:55:00,35.4,29.6,30.06,East,90,1.7,4.6,79,0.00,OVC,,0.00,WeatherDisplay:10.37,2013-02-23 19:55:00,
2013-02-23 15:00:00,35.6,29.7,30.07,SE,135,1.7,2.3,79,0.00,OVC,,0.00,WeatherDisplay:10.37,2013-02-23 20:00:00,
2013-02-23 15:05:00,35.6,29.4,30.07,SE,135,1.7,4.9,78,0.00,OVC,,0.00,WeatherDisplay:10.37,2013-02-23 20:05:00,
2013-02-23 15:10:00,35.8,29.6,30.07,SE,135,2.0,5.8,78,0.00,OVC,,0.00,WeatherDisplay:10.37,2013-02-23 20:10:00,
2013-02-23 15:15:00,35.6,29.4,30.07,South,180,2.0,2.3,78,0.00,OVC,,0.00,WeatherDisplay:10.37,2013-02-23 20:15:00,
2013-02-23 15:20:00,35.6,29.4,30.04,NE,45,1.8,2.3,78,0.00,OVC,,0.00,WeatherDisplay:10.37,2013-02-23 20:20:00,
2013-02-23 15:25:00,35.6,29.4,30.04,SE,135,1.8,2.3,78,0.00,OVC,,0.00,WeatherDisplay:10.37,2013-02-23 20:25:00,
2013-02-23 15:30:00,35.6,29.4,30.04,SSE,158,2.0,0.0,78,0.00,OVC,,0.00,WeatherDisplay:10.37,2013-02-23 20:30:00,
2013-02-23 15:35:00,35.4,29.2,30.04,NE,45,2.1,3.5,78,0.00,OVC,,0.00,WeatherDisplay:10.37,2013-02-23 20:35:00,
2013-02-23 15:40:00,35.4,29.2,30.03,ESE,112,2.4,5.6,78,0.00,OVC,,0.00,WeatherDisplay:10.37,2013-02-23 20:40:00,
2013-02-23 15:45:00,35.6,29.4,30.03,South,180,2.5,4.6,78,0.00,OVC,,0.00,WeatherDisplay:10.37,2013-02-23 20:45:00,
2013-02-23 15:50:00,35.6,29.4,30.03,South,180,2.6,4.6,78,0.00,OVC,,0.00,WeatherDisplay:10.37,2013-02-23 20:50:00,
2013-02-23 15:55:00,35.8,29.6,30.03,SSW,202,2.0,2.0,78,0.00,OVC,,0.00,WeatherDisplay:10.37,2013-02-23 20:55:00,
2013-02-23 16:01:00,35.6,29.4,30.03,South,180,2.2,3.5,78,0.00,OVC,,0.00,WeatherDisplay:10.37,2013-02-23 21:01:00,
2013-02-23 16:06:00,35.6,29.4,30.03,SE,135,2.0,3.5,78,0.00,OVC,,0.00,WeatherDisplay:10.37,2013-02-23 21:06:00,
2013-02-23 16:11:00,35.4,29.2,30.03,East,90,1.8,2.3,78,0.00,OVC,,0.00,WeatherDisplay:10.37,2013-02-23 21:11:00,
2013-02-23 16:16:00,35.4,29.2,30.03,WNW,292,2.0,2.3,78,0.00,OVC,,0.00,WeatherDisplay:10.37,2013-02-23 21:16:00,
2013-02-23 16:21:00,35.4,29.2,30.02,East,90,1.6,2.3,78,0.00,OVC,,0.00,WeatherDisplay:10.37,2013-02-23 21:21:00,
2013-02-23 16:26:00,35.4,29.2,30.02,South,180,1.6,2.3,78,0.00,OVC,,0.00,WeatherDisplay:10.37,2013-02-23 21:26:00,
2013-02-23 16:31:00,35.4,29.2,30.02,South,180,1.8,3.5,78,0.00,OVC,,0.00,WeatherDisplay:10.37,2013-02-23 21:31:00,
2013-02-23 16:36:00,35.4,29.2,30.02,South,180,2.0,2.3,78,0.00,OVC,,0.00,WeatherDisplay:10.37,2013-02-23 21:36:00,
2013-02-23 16:41:00,35.4,29.2,30.00,SE,135,2.2,6.9,78,0.00,OVC,,0.00,WeatherDisplay:10.37,2013-02-23 21:41:00,
2013-02-23 16:46:00,35.1,28.6,30.00,NW,315,2.4,2.4,77,0.00,OVC,,0.00,WeatherDisplay:10.37,2013-02-23 21:46:00,
2013-02-23 16:51:00,34.9,28.7,30.00,ENE,68,2.6,4.6,78,0.00,OVC,,0.00,WeatherDisplay:10.37,2013-02-23 21:51:00,
2013-02-23 16:56:00,34.7,28.9,30.00,South,180,2.8,2.8,79,0.00,OVC,,0.00,WeatherDisplay:10.37,2013-02-23 21:56:00,
2013-02-23 17:01:00,34.2,28.6,30.00,SW,225,2.0,2.3,80,0.00,OVC,,0.00,WeatherDisplay:10.37,2013-02-23 22:01:00,
2013-02-23 17:06:00,34.0,28.5,30.00,SE,135,1.7,0.0,80,0.00,-SN,,0.00,WeatherDisplay:10.37,2013-02-23 22:06:00,
2013-02-23 17:11:00,33.8,28.6,30.00,East,90,1.5,2.3,81,0.00,-SN,,0.00,WeatherDisplay:10.37,2013-02-23 22:11:00,
2013-02-23 17:16:00,33.6,28.4,30.00,East,90,1.1,1.1,81,0.00,-SN,,0.00,WeatherDisplay:10.37,2013-02-23 22:16:00,
2013-02-23 17:21:00,33.6,28.4,30.00,SSW,202,1.1,1.1,81,0.00,-SN,,0.00,WeatherDisplay:10.37,2013-02-23 22:21:00,
2013-02-23 17:26:00,33.4,28.5,30.00,ENE,68,0.5,0.0,82,0.00,-SN,,0.00,WeatherDisplay:10.37,2013-02-23 22:26:00,
2013-02-23 17:31:00,33.3,28.4,30.00,SE,135,0.3,3.5,82,0.00,-SN,,0.00,WeatherDisplay:10.37,2013-02-23 22:31:00,
2013-02-23 17:36:00,33.1,28.2,30.00,ENE,68,0.8,1.1,82,0.00,-SN,,0.00,WeatherDisplay:10.37,2013-02-23 22:36:00,
2013-02-23 17:41:00,33.1,28.2,29.99,South,180,0.6,0.0,82,0.00,-SN,,0.00,WeatherDisplay:10.37,2013-02-23 22:41:00,
2013-02-23 17:46:00,32.9,28.0,29.99,NNE,22,0.3,0.0,82,0.00,-SN,,0.00,WeatherDisplay:10.37,2013-02-23 22:46:00,
2013-02-23 17:51:00,32.9,28.0,29.99,SSE,158,0.3,2.3,82,0.00,-SN,,0.00,WeatherDisplay:10.37,2013-02-23 22:51:00,
2013-02-23 17:56:00,32.9,28.0,29.99,NNE,22,0.3,0.0,82,0.00,-SN,,0.00,WeatherDisplay:10.37,2013-02-23 22:56:00,
2013-02-23 18:01:00,32.7,27.8,29.99,North,0,0.2,2.3,82,0.00,-SN,,0.00,WeatherDisplay:10.37,2013-02-23 23:01:00,
2013-02-23 18:06:00,32.7,27.8,29.99,SSW,202,0.2,0.0,82,0.00,-SN,,0.00,WeatherDisplay:10.37,2013-02-23 23:06:00,
2013-02-23 18:11:00,32.7,28.1,29.99,East,90,0.5,2.3,83,0.00,-SN,,0.00,WeatherDisplay:10.37,2013-02-23 23:11:00,
2013-02-23 18:16:00,32.7,28.1,29.99,NNW,338,0.3,0.0,83,0.00,-SN,,0.00,WeatherDisplay:10.37,2013-02-23 23:16:00,
2013-02-23 18:21:00,32.9,28.3,29.99,East,90,0.3,0.0,83,0.00,-SN,,0.00,WeatherDisplay:10.37,2013-02-23 23:21:00,
2013-02-23 18:26:00,32.9,28.3,29.99,NW,315,0.5,0.0,83,0.00,-SN,,0.00,WeatherDisplay:10.37,2013-02-23 23:26:00,
2013-02-23 18:31:00,32.7,28.1,29.99,North,0,0.5,0.0,83,0.00,-SN,,0.00,WeatherDisplay:10.37,2013-02-23 23:31:00,
2013-02-23 18:36:00,32.7,28.1,29.99,East,90,0.2,0.0,83,0.00,-SN,,0.00,WeatherDisplay:10.37,2013-02-23 23:36:00,
2013-02-23 18:41:00,32.7,28.1,29.99,NNE,22,0.1,1.1,83,0.00,-SN,,0.00,WeatherDisplay:10.37,2013-02-23 23:41:00,
2013-02-23 18:46:00,32.7,28.1,29.99,ESE,112,0.2,0.0,83,0.00,-SN,,0.00,WeatherDisplay:10.37,2013-02-23 23:46:00,
2013-02-23 18:51:00,32.7,28.1,29.99,South,180,0.2,0.0,83,0.00,-SN,,0.00,WeatherDisplay:10.37,2013-02-23 23:51:00,
2013-02-23 18:56:00,32.7,28.1,29.99,East,90,0.2,3.5,83,0.00,-SN,,0.00,WeatherDisplay:10.37,2013-02-23 23:56:00,
2013-02-23 19:01:00,32.7,28.4,29.99,WSW,248,0.3,1.1,84,0.00,-SN,,0.00,WeatherDisplay:10.37,2013-02-24 00:01:00,
2013-02-23 19:06:00,32.5,28.0,29.99,ENE,68,0.2,0.0,83,0.00,-SN,,0.00,WeatherDisplay:10.37,2013-02-24 00:06:00,
2013-02-23 19:11:00,32.5,28.0,29.99,ENE,68,0.2,1.1,83,0.00,-SN,,0.00,WeatherDisplay:10.37,2013-02-24 00:11:00,
2013-02-23 19:16:00,32.5,28.2,29.99,SE,135,0.3,0.0,84,0.00,-SN,,0.00,WeatherDisplay:10.37,2013-02-24 00:16:00,
2013-02-23 19:21:00,32.7,28.4,29.96,ENE,68,0.3,0.0,84,0.00,-SN,,0.00,WeatherDisplay:10.37,2013-02-24 00:21:00,
2013-02-23 19:26:00,32.5,28.2,29.96,East,90,0.2,0.0,84,0.00,-SN,,0.00,WeatherDisplay:10.37,2013-02-24 00:26:00,
2013-02-23 19:31:00,32.5,28.2,29.96,SSE,158,0.2,2.3,84,0.00,-SN,,0.00,WeatherDisplay:10.37,2013-02-24 00:31:00,
2013-02-23 19:36:00,32.5,28.2,29.96,NE,45,0.3,1.1,84,0.00,-SN,,0.00,WeatherDisplay:10.37,2013-02-24 00:36:00,
2013-02-23 19:41:00,32.5,28.2,29.98,ENE,68,0.6,2.3,84,0.00,-SN,,0.00,WeatherDisplay:10.37,2013-02-24 00:41:00,
2013-02-23 19:46:00,32.5,28.2,29.98,NNW,338,0.5,0.0,84,0.00,-SN,,0.00,WeatherDisplay:10.37,2013-02-24 00:46:00,
2013-02-23 19:51:00,32.5,28.2,29.98,NE,45,0.2,1.1,84,0.00,-SN,,0.00,WeatherDisplay:10.37,2013-02-24 00:51:00,
2013-02-23 19:56:00,32.5,28.2,29.98,East,90,0.1,1.1,84,0.00,-SN,,0.00,WeatherDisplay:10.37,2013-02-24 00:56:00,
2013-02-23 20:01:00,32.5,28.2,29.97,SW,225,0.3,0.0,84,0.00,-SN,,0.00,WeatherDisplay:10.37,2013-02-24 01:01:00,
2013-02-23 20:06:00,32.5,28.2,29.97,ESE,112,0.3,0.0,84,0.00,-SN,,0.00,WeatherDisplay:10.37,2013-02-24 01:06:00,
2013-02-23 20:11:00,32.5,28.2,29.97,East,90,0.2,1.1,84,0.00,-SN,,0.00,WeatherDisplay:10.37,2013-02-24 01:11:00,
2013-02-23 20:16:00,32.5,28.2,29.97,NE,45,0.3,0.0,84,0.00,-SN,,0.00,WeatherDisplay:10.37,2013-02-24 01:16:00,
2013-02-23 20:21:00,32.5,28.2,29.95,East,90,0.3,0.0,84,0.00,-SN,,0.00,WeatherDisplay:10.37,2013-02-24 01:21:00,
2013-02-23 20:26:00,32.5,28.2,29.95,NE,45,0.3,1.1,84,0.00,-SN,,0.00,WeatherDisplay:10.37,2013-02-24 01:26:00,
2013-02-23 20:31:00,32.5,28.2,29.95,West,270,0.1,0.0,84,0.00,-SN,,0.00,WeatherDisplay:10.37,2013-02-24 01:31:00,
2013-02-23 20:36:00,32.4,28.1,29.95,South,180,0.3,2.3,84,0.00,-SN,,0.00,WeatherDisplay:10.37,2013-02-24 01:36:00,
2013-02-23 20:41:00,32.4,28.1,29.94,SSW,202,0.3,1.1,84,0.00,-SN,,0.00,WeatherDisplay:10.37,2013-02-24 01:41:00,
2013-02-23 20:46:00,32.5,28.2,29.94,SSE,158,0.3,0.0,84,0.00,-SN,,0.00,WeatherDisplay:10.37,2013-02-24 01:46:00,
2013-02-23 20:51:00,32.4,28.1,29.94,ENE,68,0.3,0.0,84,0.00,-SN,,0.00,WeatherDisplay:10.37,2013-02-24 01:51:00,
2013-02-23 20:56:00,32.5,28.2,29.94,ENE,68,0.3,1.1,84,0.00,-SN,,0.00,WeatherDisplay:10.37,2013-02-24 01:56:00,
2013-02-23 21:01:00,32.5,28.5,29.94,South,180,0.6,2.3,85,0.00,-SN,,0.00,WeatherDisplay:10.37,2013-02-24 02:01:00,
2013-02-23 21:06:00,32.5,28.2,29.94,SW,225,0.7,1.1,84,0.00,CLR,,0.00,WeatherDisplay:10.37,2013-02-24 02:06:00,
2013-02-23 21:11:00,32.5,28.5,29.94,ESE,112,0.7,3.5,85,0.00,CLR,,0.00,WeatherDisplay:10.37,2013-02-24 02:11:00,
2013-02-23 21:16:00,32.5,28.5,29.94,East,90,0.7,1.1,85,0.00,CLR,,0.00,WeatherDisplay:10.37,2013-02-24 02:16:00,
2013-02-23 21:21:00,32.5,28.5,29.93,NNE,22,1.0,1.1,85,0.00,CLR,,0.00,WeatherDisplay:10.37,2013-02-24 02:21:00,
2013-02-23 21:26:00,32.4,28.4,29.93,ENE,68,0.6,0.0,85,0.00,CLR,,0.00,WeatherDisplay:10.37,2013-02-24 02:26:00,
2013-02-23 21:32:00,32.5,28.5,29.93,East,90,0.5,1.3,85,0.00,CLR,,0.00,WeatherDisplay:10.37,2013-02-24 02:32:00,
2013-02-23 21:37:00,32.5,28.5,29.93,NE,45,0.6,1.1,85,0.00,CLR,,0.00,WeatherDisplay:10.37,2013-02-24 02:37:00,
2013-02-23 21:42:00,32.5,28.5,29.93,ESE,112,0.5,0.0,85,0.00,CLR,,0.00,WeatherDisplay:10.37,2013-02-24 02:42:00,
2013-02-23 21:47:00,32.5,28.5,29.93,East,90,0.5,1.1,85,0.00,CLR,,0.00,WeatherDisplay:10.37,2013-02-24 02:47:00,
2013-02-23 21:52:00,32.5,28.5,29.93,SE,135,0.3,0.0,85,0.00,CLR,,0.00,WeatherDisplay:10.37,2013-02-24 02:52:00,
2013-02-23 21:57:00,32.5,28.5,29.93,NE,45,0.2,1.1,85,0.00,CLR,,0.00,WeatherDisplay:10.37,2013-02-24 02:57:00,
2013-02-23 22:02:00,32.5,28.5,29.92,NNW,338,0.2,1.0,85,0.00,CLR,,0.00,WeatherDisplay:10.37,2013-02-24 03:02:00,
2013-02-23 22:07:00,32.5,28.5,29.92,NE,45,0.1,0.0,85,0.00,CLR,,0.00,WeatherDisplay:10.37,2013-02-24 03:07:00,
2013-02-23 22:12:00,32.5,28.5,29.92,NNE,22,0.1,0.0,85,0.00,CLR,,0.00,WeatherDisplay:10.37,2013-02-24 03:12:00,
2013-02-23 22:17:00,32.5,28.5,29.92,NE,45,0.3,2.3,85,0.00,CLR,,0.00,WeatherDisplay:10.37,2013-02-24 03:17:00,
2013-02-23 22:22:00,32.4,28.4,29.91,NNE,22,0.3,0.0,85,0.00,CLR,,0.00,WeatherDisplay:10.37,2013-02-24 03:22:00,
2013-02-23 22:27:00,32.4,28.4,29.91,NNE,22,0.1,0.0,85,0.00,CLR,,0.00,WeatherDisplay:10.37,2013-02-24 03:27:00,
2013-02-23 22:32:00,32.5,28.5,29.91,ENE,68,0.1,1.1,85,0.00,CLR,,0.00,WeatherDisplay:10.37,2013-02-24 03:32:00,
2013-02-23 22:37:00,32.5,28.5,29.91,SSE,158,0.2,1.1,85,0.00,CLR,,0.00,WeatherDisplay:10.37,2013-02-24 03:37:00,
2013-02-23 22:42:00,32.5,28.5,29.90,East,90,0.2,0.0,85,0.00,CLR,,0.00,WeatherDisplay:10.37,2013-02-24 03:42:00,
2013-02-23 22:47:00,32.4,28.4,29.90,NE,45,0.1,0.0,85,0.00,CLR,,0.00,WeatherDisplay:10.37,2013-02-24 03:47:00,
2013-02-23 22:52:00,32.5,28.5,29.90,NNE,22,0.1,1.1,85,0.00,CLR,,0.00,WeatherDisplay:10.37,2013-02-24 03:52:00,
2013-02-23 22:57:00,32.5,28.5,29.90,NE,45,0.1,1.1,85,0.00,CLR,,0.00,WeatherDisplay:10.37,2013-02-24 03:57:00,
2013-02-23 23:02:00,32.5,28.5,29.88,ESE,112,0.3,2.3,85,0.00,CLR,,0.00,WeatherDisplay:10.37,2013-02-24 04:02:00,
2013-02-23 23:07:00,32.7,28.7,29.88,ENE,68,0.5,0.0,85,0.00,CLR,,0.00,WeatherDisplay:10.37,2013-02-24 04:07:00,
2013-02-23 23:12:00,32.5,28.5,29.88,ENE,68,0.3,0.0,85,0.00,CLR,,0.00,WeatherDisplay:10.37,2013-02-24 04:12:00,
2013-02-23 23:17:00,32.5,28.5,29.88,NE,45,0.3,2.3,85,0.00,CLR,,0.00,WeatherDisplay:10.37,2013-02-24 04:17:00,
2013-02-23 23:22:00,32.7,28.7,29.88,NE,45,0.3,0.0,85,0.00,CLR,,0.00,WeatherDisplay:10.37,2013-02-24 04:22:00,
2013-02-23 23:27:00,32.7,28.7,29.88,East,90,0.1,1.1,85,0.00,CLR,,0.00,WeatherDisplay:10.37,2013-02-24 04:27:00,
2013-02-23 23:32:00,32.7,28.7,29.88,SE,135,0.2,2.3,85,0.00,CLR,,0.00,WeatherDisplay:10.37,2013-02-24 04:32:00,
2013-02-23 23:37:00,32.7,28.7,29.88,NNE,22,0.5,1.1,85,0.00,CLR,,0.00,WeatherDisplay:10.37,2013-02-24 04:37:00,
2013-02-23 23:42:00,32.7,28.7,29.86,SSE,158,0.5,0.0,85,0.00,CLR,,0.00,WeatherDisplay:10.37,2013-02-24 04:42:00,
2013-02-23 23:47:00,32.7,28.7,29.86,NNE,22,0.1,0.0,85,0.00,CLR,,0.00,WeatherDisplay:10.37,2013-02-24 04:47:00,
2013-02-23 23:52:00,32.9,28.9,29.86,East,90,0.2,2.3,85,0.00,CLR,,0.00,WeatherDisplay:10.37,2013-02-24 04:52:00,
2013-02-23 23:57:00,32.7,28.7,29.86,NE,45,0.3,2.3,85,0.00,CLR,,0.00,WeatherDisplay:10.37,2013-02-24 04:57:00,